Preview of NWS' New Version of Forecast
This preview is not operational and should not be used for support decisions.

Regional Weather Roundup (RWR)

Issued by National Weather Service (NWS)

                            
000
ASUS43 KBIS 201410
RWRND 

NORTH DAKOTA REGIONAL WEATHER ROUNDUP
NATIONAL WEATHER SERVICE BISMARCK ND
900 AM CDT WED MAR 20 2019

NOTE: "FAIR" INDICATES FEW OR NO CLOUDS BELOW 12,000 FEET WITH NO
SIGNIFICANT WEATHER AND/OR OBSTRUCTIONS TO VISIBILITY.


NDZ001>003-009>011-017-201500-
NORTHWEST NORTH DAKOTA
  
CITY           SKY/WX    TMP DP  RH WIND       PRES   REMARKS
WILLISTON      CLEAR     27  25  92 CALM      30.17R FOG              
MINOT          SUNNY     34  29  82 NW14      30.12R                  
MINOT AFB      SUNNY     31  28  88 NW10      30.12R                  
$$
 
NDZ018>021-031>035-040>046-201500-
SOUTHWEST NORTH DAKOTA
  
CITY           SKY/WX    TMP DP  RH WIND       PRES   REMARKS
BISMARCK       SUNNY     35  29  78 NW9       30.12R                  
DICKINSON      SUNNY     32  28  85 NW13      30.13R                  
GARRISON         N/A     29  26  89 NW12      30.12R WCI  19          
HETTINGER ARPT SUNNY     31  26  82 NW8       30.15R                  
$$
 
NDZ004>008-012>016-024-026-027-054-201500-
NORTHEAST NORTH DAKOTA
  
CITY           SKY/WX    TMP DP  RH WIND       PRES   REMARKS
GRAND FORKS    SUNNY     31  26  82 N18       30.03R WCI  19          
GRND FRKS AFB  SUNNY     35  28  78 N18       30.03R                  
DEVILS LAKE    SUNNY     29  25  85 N15       30.08R WCI  18          
$$
 
NDZ022-023-025-028>030-036>039-047>053-201500-
SOUTHEAST NORTH DAKOTA
  
CITY           SKY/WX    TMP DP  RH WIND       PRES   REMARKS
FARGO          SUNNY     28  25  88 N12       29.99R WCI  18          
JAMESTOWN      SUNNY     31  27  85 N18       30.03R WCI  19          
$$